User: anonymous   Login
Location: Lower Kingswood
(51.2667°N, 0.2167°W)
Time: 22:20:10
(UTC+00:00)
Language:

COSMOS 2428 - Orbit

View from above orbital plane
View from above orbital plane
View from above satellite
View from above satellite

Ground track
Ground track

The orbit data is extracted from the following two-line orbital elements,

1 31792U 07029A   24055.48355819  .00000210  00000-0  13908-3 0  9996
2 31792  70.9493 325.3141 0012015 218.1957 141.8314 14.12699418858982
Epoch (UTC): 24 February 2024 11:36:19
Eccentricity: 0.0012015
inclination: 70.9493°
perigee height: 841 km
apogee height: 859 km
right ascension of ascending node: 325.3141°
argument of perigee: 218.1957°
revolutions per day: 14.12699418
mean anomaly at epoch: 141.8314°
orbit number at epoch: 85898

The dashed part of the orbit path shows where the satellite is in the earth's shadow,  

DLR